Dewpoint
71 71 72 72 71 71 71 72 72 72 72 72 72 72 72 71 71 70 69 69 70 70 71 70 71 70 71 70 70 70 70 70 69 69 69 69 69 69 69 70 70 70 69 69 68 68 67 67 66 66 66 65 64 63 63 62 62 62 61 61 62 60
70 71 71 71 71 71 71 71 71 71 71 71 71 72 71 70 70 69 70 70 69 70 70 70 70 70 70 70 69 70 70 70 69 68 69 69 69 69 69 69 69 69 69 68 68 66 67 67 67 66 66 64 62 62 64 63 63 61 60 61 61 62
71 71 71 71 71 71 71 71 70 70 70 70 70 71 70 69 69 70 70 69 70 70 70 70 71 70 70 70 69 70 69 70 69 69 69 70 69 69 69 69 69 68 68 68 66 66 65 64 65 66 64 63 63 63 63 63 62 62 61 61 61 63
70 70 70 70 70 70 70 70 70 70 70 70 70 70 70 70 70 70 70 70 70 70 70 70 70 71 71 70 70 69 69 69 69 69 69 68 69 69 69 69 69 69 67 66 66 65 64 65 64 63 63 62 62 63 63 62 60 62 62 60 59 63
71 70 69 69 70 69 70 69 69 69 70 70 70 70 70 70 70 70 71 72 70 70 70 70 69 70 69 69 69 68 68 68 68 68 69 67 67 67 68 67 67 67 66 66 65 66 65 63 63 62 63 62 63 63 62 63 61 61 61 61 61 63
70 70 70 69 69 69 69 68 69 69 69 69 69 68 69 70 69 70 71 71 71 71 70 69 69 69 69 69 68 67 67 67 68 68 68 66 66 67 67 66 66 65 66 66 66 66 64 63 62 62 62 63 62 63 61 61 62 62 62 61 62 62
70 70 70 70 70 69 69 69 69 69 68 69 69 69 68 69 70 70 70 71 71 71 70 68 68 68 68 68 68 67 67 67 67 66 67 66 67 67 67 67 67 67 66 65 64 64 63 62 62 60 62 61 62 62 63 61 62 62 61 62 63 63
70 70 70 71 71 70 70 70 70 70 69 68 68 68 68 70 70 70 70 71 71 70 69 68 68 68 68 68 67 67 67 67 67 66 66 66 65 66 66 66 67 67 65 64 63 63 61 61 62 62 61 62 62 63 63 62 63 63 61 63 62 62
70 69 70 71 70 70 70 70 70 70 70 70 69 68 69 70 70 70 70 70 70 70 69 68 69 69 68 67 68 68 67 67 67 66 66 65 66 66 66 66 66 65 66 64 63 63 61 61 63 63 61 62 63 63 64 64 64 62 61 61 61 61
70 69 70 70 71 70 70 69 70 69 70 70 69 69 70 69 70 69 69 70 70 70 70 70 69 68 67 67 67 68 67 67 66 66 65 64 65 66 66 66 65 65 63 64 63 63 62 62 60 62 62 63 63 62 64 63 64 62 62 62 62 62
70 70 71 70 70 70 70 70 69 69 70 69 69 70 69 70 70 69 70 70 69 69 69 69 68 68 67 67 67 67 67 67 66 66 66 65 65 65 65 66 66 65 65 64 64 63 62 62 62 60 63 63 63 64 64 65 64 64 62 62 62 62
69 70 69 69 70 69 69 69 69 69 69 69 69 69 69 68 69 69 70 69 70 70 69 69 69 67 67 66 66 67 67 67 66 66 66 66 65 65 64 64 66 67 67 66 65 63 64 62 62 62 62 64 64 64 63 64 64 64 63 63 62 62
70 70 69 68 69 69 70 68 69 68 69 69 68 68 68 68 69 69 70 69 69 69 69 69 69 68 67 67 68 67 67 67 68 67 67 68 67 66 65 65 65 66 66 66 65 65 62 65 64 63 63 65 65 64 64 64 63 63 62 63 63 64
68 68 69 69 70 70 69 69 70 69 70 69 68 67 68 68 69 69 69 69 69 68 68 69 68 68 68 67 67 67 67 66 66 68 68 67 66 65 64 64 65 66 66 66 66 65 65 65 64 64 64 64 64 64 64 64 63 63 63 63 64 63
68 68 69 69 69 69 69 70 70 69 69 69 68 68 69 70 68 68 68 68 69 69 68 68 68 68 68 67 66 66 66 66 66 67 66 67 66 66 65 66 66 65 65 65 64 65 64 64 64 63 63 64 64 64 64 63 63 63 62 63 64 63
68 68 69 69 69 69 69 69 69 69 70 69 69 68 69 69 68 69 68 68 68 68 68 68 68 68 69 68 67 66 66 67 66 66 65 67 67 65 66 66 67 66 64 64 64 64 64 64 64 64 64 64 65 64 64 63 62 62 62 63 62 64
67 68 68 69 69 68 69 68 68 69 69 69 69 68 69 69 69 69 69 68 68 68 68 68 68 68 69 68 68 67 67 67 67 66 66 66 65 66 67 65 65 66 66 64 63 64 64 64 64 64 64 64 65 65 64 64 63 62 63 63 64 64
68 68 68 68 67 67 68 67 67 68 68 69 69 69 69 69 67 67 69 68 68 68 68 68 68 68 69 68 68 68 68 67 67 66 66 66 66 67 67 67 65 65 64 64 63 63 64 64 63 63 63 64 64 64 65 64 64 64 63 63 63 63
68 68 68 67 67 67 67 67 67 67 67 68 68 69 69 68 68 68 68 68 68 68 68 68 68 68 68 68 68 68 68 68 67 67 67 66 66 65 67 67 65 64 65 64 63 64 64 63 63 63 63 64 64 65 64 65 64 63 63 64 65 64
68 68 67 66 66 66 66 66 65 66 66 67 68 68 68 68 68 67 67 68 67 68 68 68 67 67 68 68 68 68 67 68 67 67 67 66 65 64 65 65 65 64 64 63 64 63 63 63 63 63 63 64 64 64 64 64 63 63 63 64 65 66
66 67 66 66 65 65 64 65 65 65 65 67 66 67 67 67 67 67 66 67 67 68 68 68 67 67 67 68 68 68 67 68 67 67 67 67 66 65 65 66 64 65 64 63 63 63 63 63 62 62 62 62 63 64 64 64 63 63 63 64 64 65
64 64 65 65 65 65 65 65 65 65 65 66 65 65 66 66 67 67 67 66 66 66 67 67 67 67 67 67 67 67 67 68 67 67 67 67 66 65 65 65 65 64 64 63 62 63 62 62 61 60 59 60 63 64 64 64 63 63 63 63 63 63
63 63 64 64 65 64 64 65 65 65 66 66 66 66 65 67 66 66 66 67 66 66 66 66 67 66 66 66 66 66 66 66 66 66 66 66 65 66 65 65 65 63 63 63 63 63 63 63 60 61 61 60 58 58 60 62 63 63 63 63 63 64
63 63 63 64 64 64 65 64 65 65 66 65 64 66 67 67 66 66 66 66 66 66 66 66 66 66 66 66 67 66 67 66 65 66 66 66 65 64 65 66 66 65 64 62 62 62 63 63 62 60 58 57 58 58 56 58 59 61 63 63 62 62
63 63 64 64 64 65 65 65 65 65 66 66 66 67 66 65 65 65 65 65 65 65 66 65 66 66 66 66 66 67 66 66 66 66 65 67 65 64 65 65 65 65 64 62 61 62 62 63 63 63 59 57 56 55 54 55 59 60 62 62 62 63
63 64 64 64 64 64 65 65 64 63 63 63 63 64 63 63 65 64 64 65 66 66 66 65 65 66 66 66 67 66 67 65 65 66 65 66 66 66 64 64 63 64 64 65 63 61 61 64 63 63 64 64 60 54 55 56 57 55 61 62 62 61
64 64 64 64 65 64 64 64 64 63 63 62 62 64 65 66 66 65 66 66 66 66 66 66 66 65 66 66 66 67 67 66 65 65 65 66 66 64 63 62 63 64 64 64 64 61 61 61 62 62 62 63 63 61 60 56 54 55 55 59 61 61
63 64 64 64 65 64 64 64 63 64 64 64 64 64 65 66 67 65 64 65 65 65 66 66 66 65 65 65 65 66 66 66 65 65 64 66 66 66 65 64 65 65 64 63 64 62 61 61 60 60 62 62 62 62 61 63 59 55 54 54 56 61
64 64 65 64 64 64 64 64 64 64 64 65 65 65 66 65 64 63 63 65 65 65 65 65 66 66 65 65 65 65 65 65 66 66 65 65 66 65 65 64 64 64 64 64 64 64 63 61 61 60 61 60 60 60 60 63 61 58 55 53 54 56
63 63 63 64 64 64 65 65 64 64 64 65 65 65 64 64 64 63 63 63 65 64 64 64 65 65 65 64 64 64 65 65 65 65 65 65 65 65 65 64 64 64 64 64 64 64 63 63 62 62 61 60 59 59 59 59 59 58 58 57 54 53
63 63 64 64 64 64 64 64 64 64 64 64 64 64 63 63 64 63 62 64 63 63 64 64 65 65 65 65 64 64 64 64 65 65 64 65 66 65 65 65 64 63 64 63 63 64 64 64 63 62 61 60 59 59 59 58 58 58 58 56 54 55
62 63 64 64 65 65 65 64 64 64 64 64 65 64 63 63 64 63 64 64 63 62 62 63 64 64 64 64 64 64 64 64 65 65 65 65 65 65 65 65 65 63 63 64 65 64 64 64 63 62 62 61 61 61 61 60 59 59 58 57 56 54
60 61 62 63 63 64 64 64 65 65 65 65 66 64 63 63 63 63 64 63 63 62 63 62 63 63 64 64 64 64 64 65 65 65 65 65 65 65 65 65 65 64 65 63 63 63 62 62 63 61 61 61 61 61 61 61 61 59 59 58 57 55
59 60 60 61 62 63 64 64 64 64 65 64 64 63 63 62 64 64 64 64 64 63 63 62 62 63 64 64 64 65 65 65 65 64 64 64 65 65 65 64 63 63 63 64 64 64 63 63 63 63 63 62 62 61 61 61 61 60 59 59 58 56
56 58 59 60 61 61 62 63 63 64 64 64 64 64 63 63 63 63 64 64 64 64 63 64 64 63 64 64 64 64 64 64 64 65 64 65 64 65 64 63 63 63 63 63 63 63 64 64 63 63 63 63 63 62 62 60 61 60 59 59 58 58
55 56 57 58 59 60 61 61 62 62 63 64 64 64 64 63 63 64 65 65 65 65 64 64 64 63 63 64 63 63 64 64 64 64 64 64 64 64 63 63 63 63 63 63 63 63 63 63 62 63 64 64 63 63 63 61 60 61 59 60 59 59
53 54 54 55 57 57 59 60 61 61 62 63 63 63 63 64 64 64 65 65 64 64 65 64 64 64 63 63 64 64 63 63 64 64 64 64 64 64 64 64 64 64 63 63 63 62 63 62 63 64 64 64 63 63 63 63 61 61 61 60 60 59